User: anonymous   Login
Location: Unspecified
(0.0000°N, 0.0000°E)
Time: 22:25:34
(UTC+02:00)
Language:

ATLAS 3B CENTAUR R/B - Orbit

View from above orbital plane
View from above orbital plane
View from above satellite
View from above satellite

Ground track
Ground track

The orbit data is extracted from the following two-line orbital elements,

1 28118U 03057B   15214.50105190  .00066187  00000-0  11380-2 0  9992
2 28118 028.1382 356.8269 3562034 051.9057 048.9146 08.36419936228659
Epoch (UTC): 02 August 2015 12:01:30
Eccentricity: 0.3562034
inclination: 28.1382°
perigee height: 222 km
apogee height: 7525 km
right ascension of ascending node: 356.8269°
argument of perigee: 51.9057°
revolutions per day: 8.36419936
mean anomaly at epoch: 48.9146°
orbit number at epoch: 22865

The dashed part of the orbit path shows where the satellite is in the earth's shadow,  

DLR